Regional Weather Roundup
Issued by NWS

Home | Current Version | Previous Version | Text Only | Print | Product List | Glossary On
Versions: 1 2 3 4 5 6 7 8 9 10 11 12 13 14 15 16 17 18 19 20 21 22 23 24 25 26 27 28 29 30 31 32 33 34 35 36 37 38 39 40 41 42 43 44 45 46 47 48 49 50
000
ASUS43 KMPX 240701
RWRMN
WEATHER ROUNDUP FOR MINNESOTA
NATIONAL WEATHER SERVICE TWIN CITIES/CHANHASSEN MN
200 AM CDT THU APR 24 2014


NOTE: "FAIR" INDICATES FEW OR NO CLOUDS BELOW 12,000 FEET WITH NO
SIGNIFICANT WEATHER AND/OR OBSTRUCTIONS TO VISIBILITY. N/A MEANS
CURRENT SKY AND/OR WEATHER CONDITIONS ARE NOT AVAILABLE.

MNZ060>063-068>070-240800-
   Twin Cities Metro

CITY           SKY/WX    TMP DP  RH WIND       PRES   REMARKS
TWIN CITIES    CLOUDY    44  37  76 SE20G29   29.89F
ST PAUL        CLOUDY    44  37  76 SE17G23   29.90F
CRYSTAL        CLOUDY    45  36  70 SE13G20   29.88S
BLAINE         CLOUDY    45  41  87 E10G17    29.89S
EDEN PRAIRIE   CLOUDY    45  37  73 SE17G24   29.86F
LAKEVILLE      CLOUDY    41  37  87 E14       29.88F
SOUTH ST PAUL  CLOUDY    47  38  70 SE9G16    29.89F
LAKE ELMO      CLOUDY    43  37  81 SE14      29.91F
$$
MNZ001>005-007-008-013>017-022>024-027-028-240800-
   Northwest Minnesota

CITY           SKY/WX    TMP DP  RH WIND       PRES   REMARKS
BEMIDJI        CLOUDY    33  32  97 E10       29.89S WCI  25
HALLOCK        CLOUDY    39  36  87 SE20G28   29.84F
ROSEAU         CLOUDY    37  34  87 SE14      29.91F
WARROAD        MIX PCPN  37  34  87 SE10      29.93S
THIEF RVR FALL CLOUDY    36  30  80 E16       29.87S
CROOKSTON      CLOUDY    37  37 100 SE12      29.85F
FOSSTON        CLOUDY    34  34 100 SE9       29.86F WCI  26
DETROIT LAKES  RAIN      37  37 100 SE15      29.83S
MOORHEAD       CLOUDY    43  43 100 SE13G22   29.80F
PARK RAPIDS    CLOUDY    37  36  96 SE10      29.86S
$$
MNZ006-009>011-018-025>026-240800-
   North Central Minnesota

CITY           SKY/WX    TMP DP  RH WIND       PRES   REMARKS
BAUDETTE       LGT RAIN  38  36  92 SE10      29.95S
FLAG ISLAND    DRIZZLE   36  34  93 SE7       29.93F
INTL FALLS     LGT RAIN  37  34  89 SE12      29.98F
WASKISH        CLOUDY    36  36 100 E12       29.93S
LONGVILLE      CLOUDY    36  36 100 E8        29.90S
GRAND RAPIDS   CLOUDY    34  30  86 E6        29.95S WCI  29
CRANE LAKE     DRIZZLE   36  28  75 CALM      30.03F
ORR            RAIN      36  32  87 SE3       29.97F
COOK           RAIN      34  34 100 E3        30.00F
$$
MNZ012-019>021-037-240800-
   Northeast Minnesota

CITY           SKY/WX    TMP DP  RH WIND       PRES   REMARKS
DULUTH         LGT RAIN  36  34  92 SE10      30.00S
ELY            RAIN      36  30  80 CALM      30.02F
HIBBING        LGT RAIN  34  32  92 SE9       29.99S WCI  27
EVELETH        MIX PCPN  34  34 100 E3        30.01F
DULUTH HARBOR  MIX PCPN  34  32  93 CALM      30.04F
TWO HARBORS    RAIN      36  30  80 NE3       30.01F
SILVER BAY     DRIZZLE   36  30  80 CALM      30.02S
GRAND MARAIS     N/A     41  22  46 E8        30.05F
G MARAIS ARPRT CLOUDY    37  18  44 E5        30.03S
$$
MNZ029>031-032-039>041-046>048-054>057-064-240800-
   West Central Minnesota

CITY           SKY/WX    TMP DP  RH WIND       PRES   REMARKS
FERGUS FALLS   CLOUDY    41  36  81 SE16G22   29.78F
WHEATON        CLOUDY    43  39  87 SE16      29.79F
MORRIS         CLOUDY    41  37  87 SE16      29.78F
ALEXANDRIA     CLOUDY    40  36  86 SE15G24   29.83F
ELBOW LAKE     CLOUDY    40  37  86 SE15      29.79F
WADENA         CLOUDY    37  36  93 SE13      29.84S
GLENWOOD       CLOUDY    39  37  93 E15       29.82F
APPLETON       CLOUDY    43  37  81 E15       29.77F
BENSON         CLOUDY    43  36  75 SE15G21   29.79F
ORTONVILLE     CLOUDY    41  36  81 SE10      29.76F
MADISON        CLOUDY    46  39  76 E13       29.76F
WILLMAR        MOCLDY    43  36  75 E18       29.82F
$$
MNZ033>034-036-042>043-049>051-058-059-240800-
   Central Minnesota

CITY           SKY/WX    TMP DP  RH WIND       PRES   REMARKS
ST CLOUD       CLOUDY    43  37  79 SE9G18    29.86F
SAUK CENTRE    CLOUDY    40  37  89 E10G18    29.84F
PAYNESVILLE    CLOUDY    42  37  82 E8        29.84F
AITKIN         CLOUDY    39  36  87 E10G16    29.90F
PINE RIVER     CLOUDY    37  37 100 SE12      29.92S
BRAINERD       CLOUDY    43  36  76 SE7       29.90S
STAPLES        CLOUDY    37  36  93 SE8       29.86F
LONG PRAIRIE   CLOUDY    39  36  87 E6G16     29.85F
LITTLE FALLS   CLOUDY    39  36  87 E13       29.88S
LITCHFIELD     CLOUDY    43  39  87 E15       29.84F
BUFFALO        CLOUDY    43  36  77 E10G16    29.87F
MAPLE LAKE     CLOUDY    43  39  85 E6        29.87F
$$
MNZ037-044-045-052-053-240800-
   East Central Minnesota

CITY           SKY/WX    TMP DP  RH WIND       PRES   REMARKS
PRINCETON      CLOUDY    43  37  81 E7        29.90F
MORA           CLOUDY    37  34  87 E8        29.94F
CAMBRIDGE      CLOUDY    43  36  75 E9        29.89F
RUSH CITY      CLOUDY    40  37  89 E10       29.93F
MOOSE LAKE     CLOUDY    36  34  93 E6        29.96S
HINCKLEY       CLOUDY    37  37 100 E10       29.95F
CLOQUET        DRIZZLE   36  34  93 E7        29.99S
MCGREGOR       CLOUDY    37  36  93 E9        29.95S
$$
MNZ071>073-080-081-089-090-097-098-240800-
   Southwest Minnesota

CITY           SKY/WX    TMP DP  RH WIND       PRES   REMARKS
MONTEVIDEO     CLOUDY    43  39  87 SE17G25   29.78F
GRANITE FALLS  CLOUDY    43  37  78 E10G18    29.79F
CANBY          CLOUDY    42  39  88 SE13      29.76F
MARSHALL       CLOUDY    43  36  75 SE12      29.74F
REDWOOD FALLS  CLOUDY    44  37  76 SE15      29.78F
OLIVIA         CLOUDY    43  36  75 SE14      29.79F
PIPESTONE      CLOUDY    45  39  81 SE14G20   29.70F
WINDOM         CLOUDY    43  41  93 E9        29.75F
WORTHINGTON    CLOUDY    43  36  75 E10       29.75S
JACKSON        CLOUDY    43  37  81 SE18      29.74R
TRACY          DRIZZLE   44  40  85 SE13      29.75F
SLAYTON        RAIN      42  40  93 E12       29.74S
$$
MNZ065>067-074>077-082>085-091>093-240800-
   South Central Minnesota

CITY           SKY/WX    TMP DP  RH WIND       PRES   REMARKS
MANKATO        CLOUDY    45  37  76 SE20      29.83F
NEW ULM        CLOUDY    43  39  87 SE12      29.80F
ST JAMES       CLOUDY    45  39  81 E12       29.80F
FAIRMONT       CLOUDY    45  37  76 SE23      29.77F
GLENCOE        CLOUDY    43  36  77 E10       29.84F
FARIBAULT      LGT RAIN  46  36  66 E16G23    29.88F
OWATONNA       RAIN      45  37  76 SE18      29.86F
WASECA         LGT RAIN  43  34  70 SE16G29   29.86F
ALBERT LEA     LGT RAIN  43  43 100 SE20G29   29.82F
$$
MNZ078>079-086>088-094>096-240800-
   Southeast Minnesota

CITY           SKY/WX    TMP DP  RH WIND       PRES   REMARKS
ROCHESTER      LGT RAIN  42  36  79 SE22G31   29.89F
RED WING       CLOUDY    46  37  71 SE14G22   29.92F
STANTON        DRIZZLE   44  37  78 E10G20    29.89F
DODGE CENTER   DRIZZLE   46  39  76 SE17      29.88S
WINONA         CLOUDY    43  37  81 SE14G22   29.97S
AUSTIN         LGT RAIN  43  39  87 SE16      29.86F
PRESTON        LGT RAIN  42  38  84 SE17G24   29.92F
$$
ABBREVIATIONS USED IN REMARKS
   TC - TEMPERATURES IN CELSIUS
  WCI - WIND CHILL INDEX
   HX - HEAT INDEX
  VSB - VISIBILITY
$$


USA.gov is the U.S. government's official web portal to all federal, state and local government web resources and services.